STARLINK-2162 (47748 NORAD) Tracking and Keplerian Element Data

This shows tracking and keplerian element data for the satellite.

Feedback or suggestion? Click here.




ElementValue
Catalog47748
NameSTARLINK-2162
Epoch Orbit175
Epoch Day170.58334491
Epoch Year2021
RAAN21.4178
Inclination53.0524
Eccentricity0.000167
Argument of Perigee97.0978
Mean Anonmoly333.0119
Mean Motion15.06395142
Decay Rate0.00018018
L11 47748U 21017AC 21170.58334491 .00018018 00000-0 12256-2 0 9995
L22 47748 53.0524 21.4178 0001670 97.0978 333.0119 15.06395142 1757

Live tracking and technical data element details for STARLINK-2162 (NORAD 47748). STARLINK-2162 can be tracked NOW for your location showing map with azimuth and elevation plus other details from your city location.

Track the satellite on the map from your city or location and see movement details for azimuth, elevation, latitude, longitude, range, height, and movement on the map or in text.







IsCatalogInMostPopularTable: catalog: 47748, numindb: 43
Update: records affected: 1



GetName: 47748 STARLINK-2162

Hit Count: updated at: Mon, 21 Jun 2021 04:54:20 GMT